Location: Most
(50.5133°N, 13.6207°E)
Time: 19:33:45
(UTC+02:00)

ISS - Pass Details

Date: 17 May 2019
Orbit: 407 x 410 km, 51.6° (Epoch: 23 May)

Event Time Altitude Azimuth Distance (km) Brightness Sun altitude
Rises 22:06:47 0° 204° (SSW) 2,321 -0.2 -10.2°
Reaches altitude 10° 22:09:20 10° 183° (S) 1,466 -1.4 -10.4°
Enters shadow 22:11:21 17° 145° (SE) 1,123 -2.2 -10.6°
Exits shadow 22:16:00 - 79° (E) 2,207 -0.4 -11.1°
Sets 22:16:23 0° 77° (ENE) 2,349 -0.2 -11.2°
